Temp
15 16 17 18 18 18 17 18 18 18 18 17 18 18 18 16 15 15 15 14 14 13 12 12 11 11 10 10 11 10 10 10 10 10 10 10 10 9 10 9 9 9 9 9
16 17 18 18 17 17 18 18 19 19 18 18 18 18 18 16 15 15 14 14 14 13 13 12 11 11 11 11 10 11 10 10 10 10 9 9 9 9 9 10 9 9 9 9
17 18 18 17 17 17 18 19 19 19 18 18 18 17 17 16 16 15 14 14 13 13 14 13 12 12 11 10 10 11 11 10 10 10 10 9 9 9 9 9 9 9 10 9
17 18 17 17 17 18 19 19 18 18 18 19 19 15 18 16 16 15 15 14 14 14 14 14 12 11 11 11 10 11 11 11 11 10 10 10 10 9 9 8 8 8 9 10
17 17 17 17 18 18 18 18 18 18 18 19 20 14 11 17 17 16 15 14 14 14 13 14 14 12 13 12 11 12 12 11 11 11 10 10 10 10 9 9 10 9 8 10
17 17 17 17 17 17 17 17 18 18 19 20 19 20 11 16 17 16 15 14 13 13 13 14 14 14 13 13 12 12 12 12 11 11 11 10 10 9 9 9 9 9 9 9
16 17 17 17 17 17 17 18 20 21 21 17 18 19 15 17 16 16 15 14 13 13 14 13 14 14 13 13 12 12 12 12 11 11 11 10 10 9 8 8 8 8 8 9
18 18 17 17 17 18 18 19 20 20 20 19 19 21 17 17 16 17 15 14 13 13 12 13 13 13 13 13 12 12 12 11 11 11 10 9 8 8 8 8 8 8 9 9
19 19 18 18 18 18 19 19 19 20 21 22 19 19 17 16 16 15 14 14 13 12 12 13 13 13 13 12 12 12 12 11 11 11 10 9 8 8 8 8 7 8 9 9
19 19 18 18 17 18 18 19 20 20 18 20 15 17 18 16 16 15 14 14 13 12 12 12 13 13 13 13 12 12 11 11 11 10 10 9 10 9 8 8 8 8 9 9
18 18 18 18 18 19 18 19 19 18 19 21 20 17 16 17 16 15 14 14 13 13 12 12 13 13 13 13 12 12 12 11 11 10 10 9 9 8 7 8 8 9 9 9
17 19 18 19 18 18 18 18 18 20 18 17 19 17 17 16 15 15 14 13 13 12 11 12 13 12 12 12 12 12 12 11 11 10 10 9 9 9 8 8 8 9 10 10
17 18 16 17 18 18 18 19 18 19 20 19 20 18 15 15 15 14 14 12 11 11 11 10 12 12 12 12 12 12 12 11 11 11 10 10 9 9 9 9 9 9 10 9
17 18 19 17 14 17 17 18 18 18 19 19 20 17 16 15 14 13 12 12 11 11 10 10 10 12 12 11 11 11 11 11 11 11 11 10 10 10 10 10 10 11 10 10
16 17 17 15 15 15 17 18 18 17 17 17 18 18 18 15 14 13 12 11 11 10 10 9 10 11 11 11 11 11 11 11 11 11 10 10 10 10 10 10 10 10 10 9
17 17 17 17 17 17 17 17 17 17 17 17 17 17 15 15 13 12 11 11 10 10 9 10 11 11 11 11 10 10 10 10 10 10 10 10 10 10 10 10 10 10 10 10
17 17 17 18 17 16 17 17 17 17 17 17 17 15 13 12 13 12 11 11 10 9 9 9 10 11 10 10 10 10 9 9 9 9 9 9 9 9 9 9 9 9 10 10
16 16 12 16 13 14 17 16 16 16 16 16 15 15 13 13 12 11 10 11 10 9 9 10 8 9 8 7 8 9 9 9 9 9 9 9 8 9 9 9 9 9 9 9
14 13 14 14 16 17 17 17 16 16 16 16 15 14 13 12 11 11 10 10 9 9 8 9 8 7 8 8 6 7 7 6 7 5 6 7 7 7 8 8 8 8 9 9
15 14 14 15 16 17 17 16 15 15 15 15 14 13 12 12 13 12 10 9 9 9 8 8 7 7 7 6 6 6 5 5 4 5 6 6 6 7 7 7 7 8 8 9
15 14 15 16 16 16 16 15 14 14 14 14 13 13 12 12 11 10 10 9 9 8 8 7 7 7 6 6 7 7 6 5 5 5 5 6 6 6 7 7 7 7 8 8
14 15 15 15 15 16 13 14 14 13 12 12 12 12 12 11 11 10 9 8 8 8 8 7 7 7 7 6 7 6 6 6 5 5 5 5 6 6 6 7 7 7 8 8
13 14 14 14 14 12 12 12 11 11 11 11 11 10 10 10 10 9 8 8 7 7 6 7 7 7 7 6 6 6 5 5 5 5 5 5 5 6 6 7 7 7 8 8
13 12 12 12 13 12 11 11 11 11 11 10 10 9 9 9 9 8 8 7 6 6 5 6 7 6 5 4 4 5 5 5 6 6 6 7 7 7 7 7 8 8 8 8
12 11 11 11 11 11 10 10 10 9 9 9 9 9 9 8 8 7 6 6 5 6 6 5 5 5 5 4 4 5 5 5 6 6 7 7 7 7 8 8 7 8 8 8
12 11 11 12 11 10 10 10 9 9 9 9 8 8 7 7 6 6 6 5 4 4 4 5 4 4 4 5 5 5 6 6 6 7 7 7 7 8 8 8 7 7 7 8
Height
3196 3198 3196 3194 3195 3195 3198 3198 3196 3195 3197 3197 3194 3194 3193 3192 3192 3193 3194 3195 3195 3194 3193 3194 3193 3194 3191 3192 3191 3191 3193 3194 3194 3195 3195 3196 3197 3197 3198 3199 3200 3200 3200 3201
3195 3194 3194 3194 3196 3198 3198 3196 3192 3193 3194 3194 3191 3192 3191 3190 3191 3191 3192 3193 3193 3191 3190 3191 3191 3191 3190 3189 3189 3189 3190 3191 3192 3193 3193 3194 3195 3195 3195 3196 3197 3197 3198 3198
3191 3191 3192 3194 3196 3197 3195 3192 3190 3191 3191 3189 3189 3187 3189 3188 3188 3189 3191 3191 3191 3189 3188 3188 3187 3187 3188 3189 3187 3187 3187 3187 3189 3190 3190 3191 3192 3192 3193 3193 3193 3194 3195 3196
3190 3189 3192 3194 3194 3194 3190 3189 3191 3191 3190 3182 3184 3185 3187 3189 3188 3189 3191 3191 3190 3188 3187 3187 3187 3185 3184 3185 3186 3185 3185 3185 3186 3186 3187 3186 3188 3189 3189 3188 3190 3191 3191 3193
3189 3189 3190 3191 3192 3192 3190 3191 3190 3189 3186 3179 3177 3186 3188 3189 3187 3188 3190 3189 3189 3187 3186 3185 3184 3184 3182 3182 3183 3184 3183 3183 3183 3183 3183 3182 3182 3183 3184 3184 3186 3186 3189 3189
3186 3188 3189 3190 3190 3191 3192 3191 3188 3186 3182 3176 3178 3176 3188 3184 3186 3188 3189 3188 3189 3187 3187 3184 3183 3181 3179 3179 3181 3182 3182 3181 3179 3178 3177 3176 3174 3172 3174 3178 3179 3182 3183 3186
3186 3186 3187 3188 3189 3189 3190 3187 3178 3175 3172 3181 3178 3176 3187 3186 3184 3186 3188 3188 3188 3188 3185 3184 3182 3180 3179 3179 3179 3180 3179 3179 3177 3174 3172 3170 3166 3162 3155 3169 3172 3178 3179 3182
3180 3182 3183 3185 3186 3184 3183 3180 3173 3171 3170 3178 3175 3171 3177 3182 3181 3184 3186 3187 3188 3187 3185 3183 3182 3180 3180 3179 3179 3179 3178 3176 3174 3172 3167 3158 3150 3152 3155 3157 3167 3172 3175 3178
3174 3175 3176 3181 3182 3184 3179 3180 3175 3169 3164 3164 3173 3175 3177 3179 3182 3184 3185 3187 3187 3186 3186 3184 3182 3181 3180 3179 3179 3177 3175 3173 3171 3167 3160 3147 3137 3140 3148 3153 3158 3166 3171 3174
3173 3173 3176 3179 3181 3181 3178 3177 3175 3170 3175 3168 3178 3176 3169 3178 3181 3185 3186 3188 3187 3186 3186 3184 3182 3181 3180 3179 3177 3176 3173 3171 3168 3164 3158 3147 3133 3132 3144 3149 3154 3165 3169 3172
3173 3173 3177 3178 3177 3175 3178 3176 3174 3175 3173 3165 3162 3176 3175 3179 3181 3184 3185 3187 3187 3187 3185 3183 3182 3181 3180 3179 3177 3175 3172 3169 3167 3163 3157 3151 3141 3141 3141 3151 3159 3164 3167 3169
3173 3170 3172 3173 3174 3176 3173 3173 3173 3168 3173 3174 3166 3172 3177 3179 3181 3181 3185 3186 3186 3185 3184 3182 3181 3180 3179 3178 3176 3174 3172 3169 3166 3163 3159 3156 3152 3153 3155 3157 3161 3163 3165 3164
3173 3169 3173 3174 3174 3174 3174 3173 3173 3170 3168 3170 3171 3170 3174 3176 3178 3180 3183 3183 3182 3182 3182 3181 3180 3179 3178 3176 3175 3173 3171 3169 3167 3164 3162 3159 3157 3158 3161 3162 3162 3162 3161 3161
3170 3168 3166 3165 3180 3177 3175 3174 3175 3174 3171 3167 3168 3171 3175 3175 3175 3176 3180 3181 3182 3182 3181 3181 3179 3177 3176 3175 3174 3172 3170 3168 3166 3165 3164 3162 3160 3160 3160 3160 3160 3159 3158 3158
3171 3168 3168 3172 3170 3178 3175 3174 3174 3175 3175 3175 3171 3171 3174 3172 3175 3177 3178 3178 3179 3180 3180 3178 3176 3175 3174 3173 3172 3170 3169 3167 3166 3164 3162 3162 3161 3160 3159 3159 3158 3157 3155 3155
3168 3166 3166 3165 3169 3172 3173 3172 3172 3172 3173 3173 3173 3173 3170 3171 3173 3175 3175 3177 3178 3178 3177 3174 3174 3173 3172 3171 3170 3168 3167 3165 3164 3163 3161 3159 3158 3157 3156 3155 3155 3154 3153 3152
3166 3163 3165 3162 3164 3167 3169 3167 3167 3168 3171 3171 3171 3170 3171 3170 3170 3173 3174 3176 3176 3176 3174 3173 3172 3171 3170 3169 3167 3166 3164 3163 3161 3159 3158 3157 3155 3153 3152 3150 3150 3149 3148 3148
3163 3163 3163 3161 3171 3169 3163 3164 3167 3167 3168 3168 3169 3169 3171 3171 3170 3171 3172 3175 3175 3174 3172 3171 3170 3168 3167 3166 3162 3161 3159 3156 3154 3153 3152 3150 3149 3147 3146 3145 3143 3141 3141 3141
3163 3164 3164 3161 3159 3160 3160 3161 3161 3163 3164 3164 3167 3167 3169 3169 3170 3169 3170 3172 3172 3171 3170 3169 3167 3166 3164 3162 3158 3155 3153 3151 3149 3146 3143 3143 3141 3139 3138 3136 3135 3134 3133 3133
3160 3162 3164 3162 3159 3157 3158 3160 3160 3163 3162 3162 3164 3166 3168 3169 3169 3166 3167 3169 3168 3167 3167 3165 3165 3163 3162 3158 3159 3153 3149 3148 3145 3142 3140 3137 3135 3134 3132 3130 3128 3126 3125 3125
3155 3159 3158 3155 3155 3155 3155 3159 3160 3163 3164 3161 3163 3165 3167 3168 3166 3165 3165 3165 3166 3165 3163 3162 3159 3159 3158 3153 3151 3149 3146 3144 3140 3137 3135 3133 3131 3128 3125 3124 3123 3121 3120 3118
3153 3155 3153 3153 3153 3154 3154 3156 3160 3158 3158 3160 3161 3163 3165 3164 3163 3162 3162 3162 3161 3159 3158 3157 3155 3153 3150 3147 3143 3141 3138 3134 3132 3130 3128 3126 3124 3123 3121 3119 3117 3116 3114 3112
3153 3152 3153 3153 3152 3150 3151 3154 3153 3155 3157 3157 3158 3158 3160 3161 3161 3161 3160 3158 3157 3154 3152 3151 3148 3146 3143 3139 3133 3134 3130 3128 3126 3123 3120 3118 3116 3114 3113 3112 3111 3109 3108 3106
3147 3148 3150 3151 3150 3150 3151 3151 3150 3152 3155 3154 3155 3155 3155 3157 3157 3156 3155 3154 3151 3149 3146 3144 3142 3139 3136 3132 3126 3124 3122 3119 3118 3116 3114 3111 3107 3105 3103 3101 3100 3099 3099 3098
3147 3144 3146 3147 3147 3147 3147 3148 3149 3149 3149 3151 3151 3151 3152 3152 3152 3151 3149 3146 3144 3140 3139 3136 3132 3129 3127 3124 3120 3118 3115 3112 3110 3108 3106 3103 3100 3097 3094 3091 3089 3087 3088 3087
3142 3142 3143 3145 3143 3143 3145 3145 3145 3145 3146 3147 3147 3147 3146 3145 3145 3144 3143 3140 3137 3134 3129 3127 3124 3121 3118 3116 3113 3110 3107 3104 3102 3099 3097 3094 3091 3088 3085 3081 3079 3077 3075 3074
Wind_Speed
12 15 17 17 10 6 4 7 8 5 5 8 7 6 7 8 1 3 2 2 3 6 8 13 13 16 20 15 18 21 17 18 20 18 15 12 13 15 16 14 14 14 12 11
14 17 15 9 7 7 9 11 11 5 6 9 9 9 4 1 4 4 1 1 3 5 7 11 14 15 21 20 21 16 22 21 21 22 18 17 16 18 18 17 15 16 13 14
17 14 11 10 10 10 12 12 10 6 7 14 8 14 3 4 4 3 1 2 3 4 6 8 10 12 17 20 20 17 17 24 22 22 24 23 22 18 19 20 17 16 16 16
17 10 12 10 12 12 14 2 7 9 12 16 6 6 4 5 7 5 1 2 3 5 6 7 5 10 12 16 19 19 19 22 25 24 26 27 24 23 21 19 17 18 19 19
17 14 9 14 13 10 13 6 10 11 14 19 9 14 21 7 7 5 2 2 1 3 6 7 7 8 10 13 16 16 15 18 21 28 28 30 31 28 27 25 22 20 19 18
15 12 13 15 11 11 11 11 12 12 17 16 7 5 12 9 9 5 3 3 3 5 2 6 6 5 5 9 14 14 14 15 17 22 29 35 38 40 32 29 27 22 19 20
17 13 14 13 12 11 9 15 22 15 14 3 17 15 15 8 9 7 6 2 1 4 3 6 7 5 2 3 8 13 13 14 17 18 20 28 36 41 37 36 26 24 23 20
18 17 17 15 15 16 16 16 21 4 6 10 13 2 3 4 5 7 7 5 3 3 4 5 7 6 3 1 4 7 10 13 15 18 27 33 37 34 33 40 29 24 18 21
15 15 15 14 14 13 13 10 18 19 12 13 9 3 8 9 7 7 5 5 5 3 4 3 6 6 4 4 5 8 10 12 15 19 27 31 14 26 27 30 31 21 18 19
8 13 11 12 12 14 16 11 7 11 1 10 10 21 11 9 7 4 3 3 3 4 4 3 4 5 7 7 7 8 10 12 14 17 24 28 10 18 17 20 18 14 12 15
10 9 8 11 14 12 12 13 11 7 16 9 3 5 2 2 4 4 3 3 3 3 4 2 1 4 6 7 8 10 11 12 15 16 19 24 37 3 9 15 9 10 12 15
17 11 18 13 8 9 10 2 12 15 3 21 20 12 5 6 4 4 3 4 5 5 4 3 4 4 6 7 7 9 11 12 14 15 16 15 16 15 4 7 3 4 9 8
17 16 13 17 15 11 11 7 11 15 11 13 9 7 5 3 3 3 5 5 4 5 3 2 6 6 8 8 7 8 9 11 11 13 13 12 9 5 4 4 4 8 9 11
14 22 16 9 11 7 5 8 9 10 16 18 13 6 6 3 2 2 8 6 6 6 5 5 2 6 6 5 5 7 9 9 11 10 10 10 8 6 6 6 8 10 13 13
18 21 15 9 8 13 7 7 7 9 11 13 18 14 9 2 1 6 8 9 7 5 5 4 4 5 6 6 7 8 10 9 10 11 11 10 9 8 6 7 8 10 11 12
19 17 15 21 12 10 12 11 12 13 14 14 14 14 5 12 5 8 9 9 8 7 6 5 6 7 8 10 11 10 10 11 11 12 13 13 11 11 11 11 11 12 13 14
20 20 14 19 10 6 14 14 14 7 11 13 12 1 0 2 6 8 10 9 9 9 6 4 9 13 13 14 14 17 17 17 17 17 15 15 16 15 15 16 16 17 17 17
12 7 15 3 8 1 20 8 11 15 16 13 12 11 7 6 6 9 10 9 9 9 7 9 7 11 11 9 21 22 25 27 26 24 24 24 23 22 22 23 23 23 23 22
17 19 11 9 21 19 15 13 10 9 12 14 10 7 7 6 7 8 10 10 10 9 7 8 7 8 17 19 17 19 22 27 26 22 25 22 21 20 21 23 25 25 26 27
11 16 19 20 19 19 15 15 8 6 13 16 10 9 9 6 6 13 11 9 8 8 9 9 8 11 13 17 15 20 25 19 24 22 25 24 23 20 18 18 18 21 23 24
15 13 19 21 23 21 9 7 7 9 2 4 7 9 10 6 6 7 11 7 8 10 11 11 15 14 15 23 27 28 31 23 26 26 25 26 25 25 23 19 18 19 19 20
9 14 17 18 16 18 3 6 10 8 3 6 8 10 11 12 19 16 9 7 11 13 17 15 18 21 27 30 36 34 35 33 27 27 27 28 26 24 21 21 21 21 21 21
11 14 16 10 7 7 4 5 9 9 8 6 8 9 10 11 10 9 7 9 9 14 18 23 27 33 35 35 41 35 31 30 29 30 31 31 30 29 28 26 25 25 23 22
12 13 14 11 11 13 10 8 14 12 9 8 8 7 7 9 10 8 8 10 12 14 18 28 33 36 32 30 32 32 31 34 33 32 30 32 33 34 33 31 30 28 26 27
11 7 8 12 16 14 13 11 9 8 8 7 8 7 7 8 9 11 13 14 16 26 32 27 30 28 27 27 28 32 32 34 33 32 31 31 32 34 35 35 34 33 32 31
15 16 16 12 5 10 9 7 12 10 9 10 10 9 8 9 10 12 14 16 18 21 26 25 25 25 26 28 31 32 32 33 32 33 32 34 35 34 35 35 35 34 37 36
Wind_Direction
216 209 219 220 226 283 280 270 276 274 290 297 292 303 308 316 35 149 171 246 254 261 247 224 239 234 249 223 247 247 247 240 237 248 247 258 263 260 254 255 260 273 247 267
205 220 213 238 244 248 240 259 270 266 271 276 288 300 290 211 159 162 198 351 271 249 240 234 230 237 251 244 248 256 250 250 247 248 249 256 256 259 260 253 256 254 257 250
213 212 217 229 235 238 240 255 291 294 273 271 277 319 211 138 133 158 116 39 333 323 279 262 264 237 236 238 250 261 262 254 249 245 250 252 251 254 247 253 261 274 258 254
209 218 225 237 226 231 268 273 258 266 269 281 265 33 141 158 141 129 85 276 320 291 308 323 271 265 240 239 236 253 262 262 256 249 250 252 253 253 261 258 249 245 252 254
211 220 236 219 224 235 254 292 273 264 260 258 218 116 297 160 105 118 112 28 355 45 322 323 308 235 272 241 236 251 261 263 263 259 259 259 257 254 247 253 252 248 259 262
214 230 231 219 227 243 250 278 260 249 250 273 280 265 126 316 85 94 49 104 69 352 12 349 357 325 288 247 236 248 264 270 269 266 263 257 260 253 241 244 246 253 251 260
216 231 218 213 231 234 244 252 248 229 226 91 243 272 140 103 89 82 78 51 56 11 3 5 3 8 324 280 242 253 275 290 293 295 288 277 270 264 260 235 235 241 248 254
205 211 213 217 226 242 224 258 273 272 256 152 252 261 91 88 67 14 31 84 90 70 41 12 9 16 14 313 268 275 276 288 294 304 312 296 272 254 247 245 230 228 242 256
195 244 189 212 230 237 247 259 262 294 261 232 141 247 114 120 106 100 97 97 107 97 82 37 32 24 24 13 347 321 312 314 315 324 337 331 280 244 245 223 213 214 233 244
231 204 201 207 227 234 245 295 233 265 99 280 42 285 114 123 125 138 103 104 108 104 110 95 62 54 41 27 7 352 344 342 345 346 348 4 359 203 231 214 188 213 238 252
207 224 199 192 213 207 205 234 240 229 264 264 158 185 317 97 144 162 179 123 141 134 134 160 52 51 40 23 13 8 359 351 352 357 358 17 34 212 171 171 182 230 260 257
205 244 190 206 188 206 254 27 246 273 47 321 306 105 137 126 131 169 198 172 172 167 159 226 271 316 344 351 354 8 7 7 2 359 8 10 34 44 77 50 14 330 267 278
207 230 126 215 203 217 237 250 278 298 290 230 303 135 139 142 142 144 197 200 179 157 155 201 259 299 323 326 331 349 358 359 4 8 8 14 11 60 193 271 297 287 273 310
216 229 272 210 334 322 263 260 272 287 293 308 298 85 172 171 184 200 176 182 200 186 190 195 224 301 321 322 324 336 340 347 343 353 359 7 4 344 314 293 289 285 283 290
217 242 207 149 190 239 265 264 269 281 292 294 299 309 289 12 206 191 191 194 186 186 200 198 262 296 309 316 319 326 332 336 332 327 330 333 335 330 317 302 292 284 285 280
223 242 276 260 203 237 253 265 270 276 278 277 281 277 251 274 199 185 179 179 191 195 197 242 282 296 307 311 313 316 319 318 314 310 310 312 312 310 304 299 294 289 285 277
223 248 217 241 220 267 259 264 278 266 281 277 266 239 138 192 268 182 185 185 200 202 204 250 295 302 304 301 299 302 305 305 305 306 301 294 294 293 292 290 287 282 279 276
211 275 234 207 214 270 252 280 270 276 277 262 252 266 250 231 194 184 183 196 205 206 227 280 277 297 306 298 304 305 307 308 309 303 298 298 294 289 285 284 283 280 277 272
240 270 284 310 281 260 294 300 259 283 264 243 233 229 211 182 183 193 187 198 200 211 236 277 268 272 295 298 304 313 321 317 312 317 317 313 305 300 291 286 280 275 271 266
206 218 239 254 291 290 288 297 275 277 268 244 214 218 209 203 265 221 194 200 225 254 243 269 272 287 304 305 305 306 313 315 308 311 314 313 312 309 300 293 288 279 273 270
205 228 251 256 260 270 266 248 243 260 247 161 198 205 212 235 231 215 234 229 228 243 265 278 288 290 279 274 297 301 303 297 291 301 302 303 305 306 306 299 290 287 284 278
236 259 264 262 256 268 262 239 251 250 258 218 209 224 221 229 244 246 236 241 268 273 279 280 281 282 285 293 296 301 301 298 300 299 301 303 301 301 300 296 292 287 287 287
255 255 268 284 338 280 280 225 219 239 248 231 211 216 212 224 238 236 238 248 252 268 280 276 281 289 292 294 293 297 293 293 295 298 300 301 300 300 299 294 287 283 281 285
253 251 257 263 268 253 264 260 267 257 227 225 230 215 210 226 237 245 257 267 268 277 278 283 285 288 287 286 291 294 292 294 297 297 297 299 300 301 300 298 295 290 284 281
259 234 259 256 258 261 270 260 250 237 218 209 211 214 219 232 245 259 267 278 284 281 284 287 287 289 288 288 288 291 292 293 295 296 299 299 300 300 300 299 297 293 288 282
252 258 244 242 285 238 250 254 240 233 236 229 230 248 262 268 269 273 281 286 291 288 288 291 286 286 286 289 290 291 292 294 297 298 298 300 300 300 299 297 292 288 288 285